This is the latest recevied weather packets stored in our database for station/object W1QED. If no packets are shown the sender has not sent any weather packets the latest 10 day(s).
| Time | Temp. | Humidity | Pressure | Rain* | Wind** | Luminosity | Snow |
|---|---|---|---|---|---|---|---|
| 1778090746 | 17.22° C | 66% | 1006.9 hPa | 0.76 mm | - | - | - |
| 1778090444 | 17.22° C | 65% | 1006.9 hPa | 0.51 mm | - | - | - |
| 1778090144 | 17.78° C | 63% | 1007.1 hPa | 0.51 mm | - | - | - |
| 1778089843 | 17.78° C | 61% | 1007 hPa | 0.25 mm | - | - | - |
| 1778089541 | 18.33° C | 60% | 1007 hPa | 0 mm | - | - | - |
| 1778089241 | 18.89° C | 57% | 1007.1 hPa | 0 mm | - | - | - |
| 1778088940 | 19.44° C | 55% | 1006.7 hPa | 0 mm | - | - | - |
| 1778088646 | 20° C | 53% | 1006.8 hPa | 0 mm | - | - | - |
| 1778088339 | 20° C | 52% | 1006.8 hPa | 0 mm | - | - | - |
| 1778088038 | 20° C | 51% | 1006.7 hPa | 0 mm | - | - | - |
| 1778087752 | 20° C | 51% | 1006.6 hPa | 0 mm | - | - | - |
| 1778087436 | 20° C | 51% | 1006.6 hPa | 0 mm | - | - | - |
| 1778087136 | 20° C | 50% | 1006.7 hPa | 0 mm | - | - | - |
| 1778086838 | 20° C | 50% | 1006.6 hPa | 0 mm | - | - | - |
| 1778086535 | 20° C | 49% | 1006.6 hPa | 0 mm | - | - | - |
| 1778086233 | 20.56° C | 50% | 1006.7 hPa | 0 mm | - | - | - |
| 1778085931 | 20.56° C | 49% | 1006.7 hPa | 0 mm | - | - | - |
| 1778085630 | 20.56° C | 49% | 1006.8 hPa | 0 mm | - | - | - |
| 1778085330 | 20.56° C | 49% | 1006.8 hPa | 0 mm | - | - | - |
| 1778085034 | 20.56° C | 49% | 1006.9 hPa | 0 mm | - | - | - |
| 1778084728 | 20.56° C | 49% | 1007 hPa | 0 mm | - | - | - |
| 1778084425 | 20.56° C | 49% | 1007 hPa | 0 mm | - | - | - |
| 1778084126 | 20.56° C | 48% | 1007.1 hPa | 0 mm | - | - | - |
| 1778083825 | 20.56° C | 50% | 1007.4 hPa | 0 mm | - | - | - |
| 1778083523 | 20.56° C | 50% | 1007.3 hPa | 0 mm | - | - | - |
* Rain latest hour (hover to see other rain measurements)
** Current wind speed in m/s (hover to see current wind gust speed)